Home   Weather   Oceanside   Past weeks
Flag for USA

Past Weather in Oceanside, California, USA — Yesterday and Last 2 Weeks

Now
70 °F

Passing clouds.


Feels Like: 74 °F
Forecast: 76 / 59 °F
Wind: 8 mph from Northeast

Location: Oceanside Weather Reporting Station

Current Time: Sep 17, 2019 at 9:42:51 am

Latest Report: Sep 17, 2019 at 8:52 am


Visibility: 9 mi

Pressure: 29.97 "Hg

Humidity: 71%

Dew Point: 60 °F

Location of OceansideLocation

Past Weather in Oceanside — Graph

°F

Oceanside Temperature Yesterday

Maximum temperature yesterday: 79 °F (at 11:52 am)
Minimum temperature yesterday: 60 °F (at 11:52 pm)
Average temperature yesterday: 69 °F

High & Low Weather Summary for the Past Weeks

 TemperatureHumidityPressure
High88 °F (Sep 4, 12:52 pm)94% (Sep 6, 4:52 am)30.01 "Hg (Sep 6, 4:52 am)
Low57 °F (Sep 9, 4:26 am)36% (Sep 4, 4:52 pm)29.79 "Hg (Sep 4, 4:52 pm)
Average71 °F74%29.90 "Hg
* Reported Sep 2 8:15 am — Sep 17 8:22 am, Oceanside. Weather by CustomWeather, © 2019

Note: Actual official high and low records may vary slightly from our data, if they occured in-between our weather recording intervals... More about our weather records

Advertising

Oceanside Weather History for the Previous 24 Hours

Scroll right to see more
 ConditionsComfort  
Time TempWeatherWind HumidityBarometerVisibility
8:22 am
Tue, Sep 17
68 °FPassing clouds.5 mph76%29.97 "Hg8 mi
7:52 am63 °FPartly sunny.No wind87%29.97 "Hg8 mi
6:52 am60 °FOvercast.No wind93%29.95 "Hg7 mi
6:18 am58 °FPassing clouds.3 mph93%29.93 "Hg7 mi
6:10 am59 °FPassing clouds.No wind90%29.93 "Hg7 mi
5:52 am60 °FPassing clouds.No wind90%29.93 "Hg8 mi
5:00 am60 °FPassing clouds.No wind90%29.92 "Hg8 mi
3:52 am60 °FClear.No wind90%29.90 "Hg8 mi
2:52 am60 °FClear.No wind93%29.91 "Hg9 mi
2:23 am62 °FPassing clouds.No wind90%29.92 "Hg8 mi
1:52 am63 °FPassing clouds.No wind87%29.92 "Hg9 mi
1:26 am62 °FPassing clouds.No wind90%29.92 "Hg8 mi
12:52 am62 °FClear.No wind90%29.91 "Hg8 mi
11:52 pm
Mon, Sep 16
60 °FClear.No wind90%29.90 "Hg9 mi
11:23 pm63 °FPassing clouds.No wind90%29.91 "Hg9 mi
11:03 pm64 °FOvercast.5 mph87%29.91 "Hg9 mi
10:52 pm63 °FPassing clouds.No wind87%29.90 "Hg10 mi
10:30 pm63 °FPassing clouds.No wind87%29.91 "Hg10 mi
9:52 pm64 °FPassing clouds.3 mph87%29.90 "Hg10 mi
8:52 pm67 °FPassing clouds.5 mph85%29.89 "Hg10 mi
7:52 pm67 °FClear.5 mph85%29.88 "Hg10 mi
6:52 pm69 °FSunny.6 mph79%29.87 "Hg10 mi
5:52 pm71 °FSunny.8 mph73%29.87 "Hg10 mi
4:52 pm73 °FSunny.10 mph69%29.87 "Hg10 mi
3:52 pm75 °FSunny.9 mph64%29.87 "Hg10 mi
2:52 pm76 °FSunny.10 mph62%29.88 "Hg10 mi
1:52 pm77 °FSunny.9 mph62%29.90 "Hg4 mi
12:52 pm78 °FSunny.9 mph60%29.90 "Hg10 mi
11:52 am79 °FSunny.9 mph60%29.92 "Hg9 mi
10:52 am76 °FSunny.7 mph67%29.93 "Hg8 mi
9:52 am77 °FSunny.9 mph66%29.93 "Hg7 mi
Weather by CustomWeather, © 2019

See weather overview